SCP
-0 -0 -0 0 0 0 0 0 0 0 0 0 0 0 0 0 0 -0 0 0 0 0 0 0 0 0 0 0 0 0 0 0 0 0 0 0 0 0 0 0 0 0 0 0 0 0 0 0 0 0 0 0 -0 -0
-0 0 0 0 0 0 0 0 0 0 0 0 0 0 0 0 0 -0 -0 0 0 0 0 0 0 0 0 0 0 0 0 0 0 0 0 0 0 0 0 0 0 0 0 0 0 0 0 0 -0 -0 0 -0 0 0
0 0 0 0 0 0 0 0 0 0 0 0 0 0 0 0 0 0 -0 0 -0 0 0 0 0 0 0 0 0 0 0 0 0 0 0 0 0 0 0 0 0 0 0 0 0 0 0 0 0 0 0 0 0 0
-0 0 0 0 0 0 0 0 0 0 0 0 0 0 0 0 0 0 0 0 0 -0 0 0 0 0 0 0 0 0 0 0 0 0 0 0 0 0 0 0 0 0 0 0 0 0 0 0 0 0 0 0 0 0
-0 0 0 0 0 0 0 0 0 0 0 0 0 0 0 0 0 0 0 0 0 0 0 0 0 0 0 0 0 0 0 0 0 0 0 0 0 0 0 0 0 0 0 0 0 0 0 0 0 0 0 0 0 0
0 0 0 0 0 0 0 0 0 0 0 0 0 0 0 0 0 0 0 0 0 0 0 0 0 0 0 0 0 0 0 0 0 0 0 0 0 0 0 0 0 0 0 0 0 0 0 0 0 0 0 0 0 0
0 0 0 0 0 0 0 0 0 0 0 0 0 0 0 0 0 0 0 0 0 0 0 0 0 0 0 0 0 0 0 0 0 0 0 0 0 0 0 0 0 0 0 0 0 0 0 0 0 0 0 0 0 0
0 0 0 0 0 0 0 0 0 0 0 0 0 0 0 0 0 0 0 0 0 0 0 0 0 0 0 0 0 0 0 0 0 0 0 0 0 0 0 0 0 0 0 0 0 0 0 0 0 -0 0 0 0 0
0 0 0 0 0 0 0 0 0 0 0 0 0 0 0 0 0 0 0 0 0 0 0 0 0 0 0 0 0 0 0 0 0 0 0 0 0 0 0 0 0 0 0 0 0 0 0 0 0 0 0 0 0 0
0 0 0 0 0 0 0 0 0 0 0 0 0 0 0 0 0 0 0 0 0 0 0 0 0 0 0 0 0 0 0 0 0 0 0 0 0 0 0 0 0 0 0 0 0 0 0 0 0 0 0 0 0 0
0 0 0 0 0 0 0 0 0 0 0 0 0 0 0 0 0 0 0 0 0 0 0 0 0 0 0 0 0 0 0 0 0 0 0 0 0 0 0 0 0 0 0 0 0 0 0 0 0 0 0 0 0 0
0 0 0 0 0 0 0 0 0 0 0 0 0 0 0 0 0 0 0 0 0 0 0 0 0 0 0 0 0 0 0 0 0 0 0 0 0 0 0 0 0 0 0 0 0 0 0 0 0 0 0 0 0 0
0 0 0 0 0 0 0 0 0 0 0 0 0 0 0 0 0 0 0 0 0 0 0 0 0 0 0 0 0 0 0 0 0 0 0 0 0 0 0 0 0 0 0 0 -0 0 0 0 0 0 0 0 0 0
0 0 0 0 0 0 0 0 0 0 0 0 0 0 0 0 0 0 0 0 0 0 0 0 0 0 0 0 0 0 0 0 0 0 0 0 0 0 0 0 0 0 -0 -0 0 0 0 0 0 0 0 0 0 0
0 0 0 0 0 0 0 0 0 0 0 0 0 0 0 0 0 0 0 0 0 0 0 0 0 0 0 0 0 0 0 0 0 0 0 0 0 0 0 0 0 0 0 0 0 0 0 0 0 0 0 0 0 0
0 0 0 0 0 0 0 0 0 0 0 0 0 0 0 0 0 0 0 0 0 0 0 0 0 0 0 0 0 0 0 0 0 0 0 0 0 0 0 0 0 0 0 0 0 0 0 0 0 0 0 0 0 0
0 0 0 0 0 0 0 0 0 0 0 0 0 0 0 0 0 0 0 0 0 0 0 0 0 0 0 0 0 0 0 0 0 0 0 0 0 0 0 0 0 0 0 0 0 0 0 0 0 0 0 0 0 0
0 0 0 0 0 0 0 0 0 0 0 0 0 0 0 0 0 0 0 0 0 0 0 0 0 0 0 0 0 0 0 0 0 0 0 0 0 0 0 0 0 0 0 0 0 0 0 0 0 0 0 0 0 0
0 0 0 0 0 0 0 0 0 0 0 0 0 0 0 0 0 0 0 0 0 0 0 0 0 0 0 0 0 0 0 0 0 0 0 0 0 0 0 0 0 0 0 0 0 0 0 0 0 0 0 0 0 0
0 0 0 0 0 0 0 0 0 0 0 0 0 0 0 0 0 0 0 0 0 0 0 0 0 0 0 0 0 0 0 0 0 0 0 0 0 0 0 0 0 0 0 0 0 0 0 0 0 0 0 0 0 0
0 0 0 0 0 0 0 0 0 0 0 0 0 0 0 0 0 0 0 0 0 0 0 0 0 0 0 0 0 0 0 0 0 0 0 0 0 0 0 0 0 0 0 0 0 0 0 0 0 0 0 0 0 0
0 0 0 0 0 0 0 0 0 0 0 0 0 0 0 0 0 0 0 0 0 0 0 0 0 0 0 0 0 0 0 0 0 0 0 0 0 0 0 0 0 0 0 0 0 0 0 0 0 0 0 0 0 0
0 0 0 0 0 0 0 0 0 0 0 0 0 0 0 0 0 0 0 0 0 0 0 0 0 0 0 0 0 0 0 0 0 0 0 0 0 0 0 0 0 0 0 0 0 0 0 0 0 0 0 0 0 0
0 0 0 0 0 0 0 0 0 0 0 0 0 0 0 0 0 0 0 0 0 0 0 0 0 0 0 0 0 0 0 -0 -0 -0 -0 -0 0 0 0 0 0 0 0 0 0 0 0 0 0 0 0 0 0 0
0 0 0 0 0 0 0 0 0 -0 -0 -0 -0 0 0 0 0 0 0 0 0 0 0 0 0 0 0 -0 -0 -0 -0 -0 -0 0 0 0 0 0 0 0 0 0 0 0 0 0 0 0 0 0 0 0 0 0
0 0 0 0 0 0 0 -0 -0 0 0 -0 0 0 0 0 0 0 0 0 0 0 0 -0 -0 -0 -0 -0 -0 -0 0 0 0 0 0 0 0 0 0 0 0 0 0 0 0 0 0 0 0 0 0 0 0 0
0 0 0 -0 -0 0 0 0 0 0 0 0 0 0 0 0 0 0 0 0 0 -0 -0 -0 -0 -0 -0 0 0 0 0 0 0 0 0 0 0 0 0 0 0 0 0 0 0 0 0 0 0 0 0 0 0 0
0 0 0 0 0 0 0 0 0 0 0 0 0 0 0 0 0 0 0 0 0 0 0 0 0 0 0 0 0 0 0 0 0 0 0 0 0 0 0 0 0 0 0 0 0 0 0 0 0 0 0 0 0 0
0 0 0 0 0 0 0 0 0 0 0 0 0 0 0 0 0 0 0 0 0 0 0 0 0 0 0 0 0 0 0 0 0 0 0 0 0 0 0 0 0 0 0 0 0 0 0 0 0 0 0 0 0 0
0 0 0 0 0 0 0 0 0 0 0 0 0 0 0 0 0 0 0 0 0 0 0 0 0 0 0 0 0 0 0 0 0 0 0 0 0 0 0 0 0 0 0 0 0 0 0 0 0 0 0 0 0 0
0 0 0 0 0 0 0 0 0 0 0 0 0 0 0 0 0 0 0 0 0 0 0 0 0 0 0 0 0 0 0 0 0 0 0 0 0 0 0 0 0 0 0 0 0 0 0 0 0 0 0 0 0 0
0 0 0 0 0 0 0 0 0 0 0 0 0 0 0 0 0 0 0 0 0 0 0 0 0 0 0 0 0 0 0 0 0 0 0 0 0 0 0 0 0 0 0 0 0 0 0 0 0 0 0 0 0 0
0 0 0 0 0 0 0 0 0 0 0 0 0 0 0 0 0 0 0 0 0 0 0 0 0 0 0 0 0 0 0 0 0 0 0 0 0 0 0 0 0 0 0 0 0 0 0 0 0 0 0 0 0 0
Wind_Speed_500mb
15 16 16 17 21 23 23 26 30 32 33 34 36 37 39 40 37 35 28 31 20 8 20 14 8 9 19 12 3 13 15 3 5 2 4 5 4 4 6 7 9 11 10 8 7 7 13 6 1 5 5 10 7 10
20 20 18 20 22 23 25 24 26 30 33 34 36 38 39 40 40 38 33 37 30 9 13 26 19 5 6 7 10 7 8 9 11 6 4 5 6 1 3 6 8 4 11 6 3 3 13 19 27 19 10 6 7 14
24 23 23 21 21 23 26 29 31 33 34 35 36 37 37 37 37 38 36 38 26 13 15 7 8 14 15 15 13 8 7 5 8 14 10 6 8 3 4 9 4 7 7 1 9 12 19 23 18 8 2 6 13 15
25 24 24 24 25 27 28 30 31 32 33 35 35 34 35 35 35 35 32 23 19 9 5 7 9 19 24 14 15 16 27 32 32 35 10 5 3 7 5 6 2 7 7 8 6 23 22 14 9 11 11 16 19 24
19 19 19 20 23 25 28 29 30 31 32 35 37 37 38 38 36 29 14 9 16 16 8 17 25 10 13 15 23 22 18 16 10 7 8 5 11 8 11 5 6 7 6 4 2 12 11 11 11 5 21 32 38 41
19 20 21 22 24 26 29 30 33 35 37 38 40 40 40 39 31 13 4 3 9 16 7 7 9 10 14 24 27 19 13 7 8 8 10 10 7 5 4 5 4 7 5 8 8 13 7 6 8 9 30 37 41 40
22 24 25 26 27 30 32 34 35 37 38 40 43 46 48 35 21 2 6 10 11 23 4 12 10 8 21 19 19 15 10 6 10 10 10 9 5 6 4 4 10 9 15 15 17 12 6 10 12 28 39 41 42 42
28 29 29 31 32 35 37 38 39 38 39 41 44 46 39 25 10 2 7 17 26 16 6 5 8 8 9 7 8 10 4 8 10 9 9 6 6 8 7 17 7 16 24 19 9 7 9 18 32 42 43 45 48 46
26 27 28 30 31 32 34 35 36 37 41 44 43 36 19 3 4 15 31 17 1 10 4 5 4 5 14 7 10 7 5 5 6 7 6 3 6 9 11 12 12 18 14 13 6 5 18 32 44 50 52 51 49 47
26 27 27 29 32 34 36 37 40 42 45 44 31 11 7 4 28 31 7 1 1 4 3 6 5 5 9 9 6 8 5 3 4 5 2 4 7 9 17 17 17 8 17 9 10 22 36 47 52 56 53 46 40 40
30 31 32 33 35 35 36 38 39 40 39 33 19 9 20 38 11 3 3 2 2 5 10 12 12 6 6 1 5 5 6 5 5 6 3 5 6 5 13 17 22 19 14 9 16 25 34 42 49 52 49 45 43 44
32 33 32 32 34 34 34 34 33 34 33 38 33 35 16 7 3 1 3 1 5 6 10 8 11 8 4 5 6 6 4 0 10 1 2 6 5 15 20 21 22 22 25 32 38 43 43 43 43 43 43 45 45 46
34 36 36 33 33 34 30 26 26 32 40 28 7 5 5 5 6 8 7 6 4 9 13 11 6 5 4 5 10 3 7 9 4 3 7 7 17 7 8 14 20 23 35 36 37 38 37 35 35 38 42 42 44 46
37 37 40 37 36 31 25 22 26 31 25 10 7 11 9 7 9 9 6 3 5 11 14 10 6 13 11 7 10 7 8 1 6 6 10 6 19 9 5 17 28 42 40 36 35 36 38 38 39 39 37 40 42 43
45 41 43 41 31 26 22 24 28 31 11 9 7 10 11 22 17 16 23 18 20 13 15 6 9 10 9 7 7 4 5 9 10 9 5 23 21 15 16 26 34 36 36 37 37 36 34 34 35 37 37 39 41 43
47 49 43 38 30 27 26 34 33 28 9 13 17 11 18 11 18 23 33 41 32 25 11 11 8 6 10 7 7 14 6 12 8 6 17 21 16 16 20 23 26 29 30 30 28 28 31 32 33 37 37 36 45 48
45 52 48 46 45 40 35 43 34 13 14 13 18 34 43 31 32 45 43 41 23 24 8 12 10 16 4 7 8 8 10 6 16 12 14 17 17 18 21 24 25 26 26 26 29 30 33 33 35 37 41 45 48 49
54 55 49 49 49 50 53 48 27 19 22 38 22 41 50 52 54 58 52 43 30 26 18 10 13 13 10 11 11 14 25 19 15 18 20 21 20 21 21 21 21 21 23 26 29 31 31 35 37 42 44 48 53 54
55 56 54 52 50 50 17 16 29 14 41 39 46 45 50 53 65 71 71 59 53 43 14 11 10 7 10 13 14 7 5 2 3 9 13 14 12 14 15 17 20 21 26 28 29 27 27 32 38 39 44 45 47 51
57 56 57 62 49 44 16 15 21 19 17 28 45 47 51 53 60 58 53 47 45 23 15 8 6 11 14 14 15 12 13 14 13 12 5 9 19 21 20 21 22 25 28 29 33 23 27 34 35 40 40 39 44 51
69 73 71 60 57 53 26 19 20 18 15 23 43 44 33 42 55 54 45 35 30 11 4 20 23 20 18 20 20 21 20 20 17 11 9 17 23 28 27 23 25 26 24 31 30 31 29 33 36 38 45 47 45 48
69 63 62 59 37 20 26 38 34 25 22 28 24 22 19 16 30 27 20 15 14 18 16 20 21 17 20 23 23 23 24 24 23 20 18 20 25 28 28 22 28 24 27 23 23 29 33 31 34 38 41 47 46 48
48 47 48 44 23 18 14 15 18 16 7 11 13 6 4 7 19 5 16 14 11 18 18 19 17 18 18 20 23 26 29 29 28 28 29 28 26 24 20 27 30 25 26 22 22 31 33 28 33 36 44 45 49 50
30 15 10 9 25 15 15 16 20 20 17 10 6 8 8 13 13 11 7 7 9 15 21 22 22 20 18 22 26 28 29 28 27 26 28 30 31 31 31 32 29 22 25 31 27 31 32 34 34 39 45 48 48 52
8 15 16 20 19 19 11 15 10 8 5 6 6 6 11 17 4 6 4 5 6 15 22 24 21 19 18 17 19 22 27 30 34 36 33 34 36 40 40 34 31 25 25 32 29 30 35 37 39 40 41 46 48 50
12 20 14 23 14 12 11 9 9 11 10 11 12 24 15 8 6 5 4 3 9 19 23 21 17 14 14 18 20 23 27 31 36 40 42 42 40 40 42 40 39 37 27 30 36 42 44 47 46 46 43 44 44 50
9 9 13 13 18 13 14 11 12 10 8 9 9 14 7 8 3 4 1 7 19 20 15 8 8 12 17 22 25 31 36 39 43 47 50 47 39 32 35 35 37 39 36 35 41 48 50 47 46 46 47 45 43 47
8 14 7 38 12 6 6 10 7 6 6 11 21 6 5 7 5 3 15 26 18 11 3 7 12 16 22 31 38 45 48 51 52 51 50 49 44 41 35 37 37 35 34 38 39 43 45 44 44 46 48 59 41 42
4 20 29 9 9 5 3 2 5 7 13 12 5 6 10 11 30 54 39 22 12 6 7 5 11 20 32 45 53 61 64 59 60 63 62 63 60 50 43 43 37 37 34 34 35 41 43 46 49 50 34 43 53 44
9 24 11 8 5 6 4 14 25 40 44 31 25 33 42 43 36 32 28 19 17 18 13 14 21 32 46 58 67 71 69 66 58 57 58 61 61 55 46 43 41 33 39 45 44 39 36 38 40 38 39 43 43 41
14 9 6 7 10 11 24 42 48 44 32 15 20 25 28 21 25 21 16 15 21 28 31 28 29 33 48 58 63 65 77 77 64 54 48 51 48 47 47 38 43 47 45 46 41 49 41 45 44 45 46 48 47 45
9 4 8 6 11 23 34 20 26 10 10 9 9 11 12 11 11 9 10 13 21 27 31 33 38 43 50 60 64 60 63 66 56 49 48 49 49 46 52 58 55 52 53 57 43 36 45 46 47 46 45 44 41 40
11 11 9 11 11 11 15 28 9 14 10 8 8 9 11 9 13 11 13 15 20 26 31 36 41 46 53 66 72 63 52 46 40 41 41 40 44 48 46 43 49 41 45 56 53 50 50 50 48 46 43 41 42 43
Wind_Direction_500mb
88 70 58 45 38 32 26 23 19 15 11 10 11 10 8 9 13 11 2 3 354 273 287 304 320 336 311 319 300 344 338 332 327 300 266 274 332 335 0 158 173 169 173 203 216 239 266 354 314 77 53 40 84 54
77 70 60 58 48 38 33 20 14 11 10 10 9 9 9 7 7 8 4 359 347 282 275 305 315 36 62 295 300 294 288 317 318 277 301 315 282 238 218 268 50 297 194 209 186 164 85 77 107 96 101 87 3 342
81 71 60 49 36 25 17 11 7 3 1 3 3 2 0 360 358 358 357 355 359 347 318 328 304 300 308 315 297 268 272 308 3 354 316 291 278 56 245 256 353 22 46 82 32 116 118 115 100 95 177 340 329 350
62 49 36 24 16 9 4 1 357 355 353 353 353 352 352 350 351 348 354 4 24 338 316 275 296 306 307 315 330 287 262 277 284 292 287 278 255 294 272 259 152 245 124 208 236 109 111 130 151 120 33 18 352 334
48 35 24 15 9 4 359 355 353 352 349 347 345 344 341 337 339 336 333 354 11 12 303 286 306 298 311 318 318 310 284 285 284 261 226 242 259 304 257 261 251 253 215 132 61 156 137 113 72 20 2 351 339 330
28 20 14 9 5 3 360 354 350 347 345 342 339 337 333 330 332 330 319 298 335 3 319 302 326 318 317 322 318 315 285 259 244 253 257 259 261 263 275 266 192 136 119 162 156 157 118 43 7 325 334 330 329 327
15 12 9 5 4 360 355 351 349 346 343 341 339 335 333 338 345 124 232 271 295 350 307 296 299 280 316 328 323 314 296 264 250 267 246 268 212 258 277 254 176 200 160 144 134 124 81 14 340 335 332 326 324 326
5 0 356 353 351 349 347 345 344 342 337 334 332 326 322 325 334 294 310 277 274 288 215 274 278 279 341 320 296 291 295 281 241 261 293 262 295 229 258 251 208 182 167 168 156 51 37 352 347 345 334 325 320 325
354 350 345 343 340 338 337 336 337 337 336 333 328 321 312 315 307 323 315 321 43 170 235 224 280 289 337 342 305 295 319 279 232 241 233 249 235 231 244 296 235 209 190 195 201 33 351 341 333 326 326 323 316 318
340 337 335 334 333 335 335 334 335 338 339 338 332 320 299 317 313 315 332 19 290 253 234 247 264 265 318 341 293 300 227 277 290 224 213 223 258 286 338 305 270 185 202 203 347 343 334 322 320 320 322 322 319 318
333 332 332 329 327 329 328 328 330 334 339 347 331 286 291 310 315 267 229 248 189 247 214 231 239 254 284 261 291 317 307 281 273 255 150 250 264 28 34 78 76 80 74 60 351 328 318 317 320 322 324 327 325 324
322 321 322 322 322 325 324 324 327 333 339 326 299 290 307 299 275 327 235 275 214 233 192 209 230 223 263 283 267 234 253 142 251 327 259 262 234 86 91 78 60 45 20 352 333 316 315 320 320 321 322 322 323 325
317 317 317 319 319 320 317 317 324 328 335 326 303 295 277 239 359 155 231 276 267 205 200 206 233 196 213 240 254 260 247 232 325 238 238 224 145 126 70 36 20 6 343 327 311 310 310 314 315 317 318 320 321 325
311 310 311 316 316 316 313 314 319 328 349 311 311 304 182 237 238 202 208 213 219 211 204 206 222 205 197 221 223 237 237 276 260 242 237 204 174 193 304 331 341 342 332 325 325 326 323 325 327 327 325 324 323 327
309 308 307 316 309 310 307 306 311 319 323 265 242 243 231 239 255 251 253 255 255 248 221 189 234 224 190 242 206 261 260 245 221 232 214 185 198 234 284 315 320 325 324 326 326 325 325 328 329 330 332 331 328 330
305 304 303 309 303 303 297 296 299 303 248 228 230 255 259 290 267 252 259 259 266 251 211 206 247 229 217 211 209 215 209 226 240 201 189 194 213 263 293 307 316 316 318 317 317 319 322 324 328 329 332 330 325 329
311 294 308 305 301 297 293 289 269 234 234 227 236 237 244 267 268 266 270 274 259 187 188 209 221 218 210 223 213 214 220 236 152 176 199 222 232 263 293 306 309 313 314 315 318 323 326 324 325 327 327 326 326 328
290 297 298 299 298 283 273 266 255 229 232 229 233 236 243 247 259 270 272 261 227 213 221 225 225 214 214 210 237 247 242 241 238 213 226 253 272 286 296 302 305 310 310 312 315 321 323 323 324 327 324 327 328 331
292 294 299 298 293 282 251 232 214 242 230 243 244 242 246 253 256 266 269 264 261 245 224 214 239 225 232 254 294 358 10 353 253 282 296 284 285 301 310 312 316 309 308 313 314 329 324 321 322 320 323 329 333 326
294 292 292 293 279 268 253 242 211 238 231 254 251 241 241 250 265 269 270 259 244 228 221 232 248 331 5 7 345 336 331 336 345 1 105 3 336 325 322 321 318 318 323 312 314 319 322 312 324 328 332 331 325 330
297 294 297 296 285 260 255 254 243 236 241 247 263 243 240 253 255 256 259 252 208 216 351 43 38 24 15 10 11 7 14 14 23 27 347 327 316 317 321 322 307 317 304 309 317 318 319 328 334 339 333 332 336 328
288 294 292 287 257 238 243 253 247 249 242 240 239 242 246 236 257 253 217 159 56 29 25 17 28 31 25 34 28 21 11 359 348 340 330 325 333 332 331 324 315 312 312 316 312 306 319 335 347 331 333 335 331 333
300 288 272 264 250 232 256 255 246 253 266 334 322 247 261 9 11 56 64 52 72 39 47 48 42 34 25 9 357 351 352 351 350 345 343 344 342 339 328 315 321 309 310 313 301 304 318 330 335 336 334 337 341 339
310 271 280 356 3 354 352 359 360 347 1 10 336 293 349 347 356 71 82 65 63 35 36 28 18 11 356 348 353 351 356 358 356 357 349 343 342 339 334 331 327 312 297 298 304 300 314 324 325 330 338 340 340 347
277 4 21 5 5 347 360 344 336 0 335 277 277 351 355 329 8 47 68 102 51 12 6 2 358 359 0 2 3 2 360 359 356 352 353 342 336 328 325 324 323 308 297 294 299 307 319 325 327 326 329 335 341 333
61 31 31 359 332 345 341 315 340 357 2 349 10 330 323 314 47 44 53 70 354 346 346 349 354 5 10 13 10 6 1 356 351 347 348 343 333 321 320 319 321 322 322 298 295 306 311 317 317 320 320 323 327 332
52 348 3 360 312 305 295 325 6 10 18 15 342 326 330 319 30 71 312 329 326 327 328 352 39 41 30 20 10 2 353 346 340 334 331 332 332 327 326 322 321 321 322 322 314 310 307 308 309 310 313 312 316 327
40 15 358 328 330 332 312 346 0 11 2 357 336 314 253 216 255 323 327 321 316 323 11 78 60 39 22 11 3 354 346 340 336 332 327 326 334 333 333 330 328 319 311 305 309 311 308 307 309 307 303 304 297 315
343 345 336 309 303 286 330 351 317 316 313 328 257 260 274 286 305 313 312 304 291 226 157 78 21 3 353 347 345 346 346 342 340 337 333 329 330 335 333 328 324 320 318 312 313 309 307 305 303 306 314 302 305 303
325 338 317 305 300 267 252 309 309 305 303 294 272 275 283 290 298 298 294 281 242 217 245 288 317 332 340 340 334 330 333 337 333 330 321 318 318 324 327 326 325 321 313 315 316 316 317 316 314 307 302 301 305 305
298 305 294 262 269 272 296 308 310 309 303 293 287 273 285 297 306 302 288 261 238 245 261 275 300 316 331 332 326 319 319 327 328 325 324 324 328 329 328 328 326 323 318 315 307 316 310 316 314 309 308 309 308 307
291 267 320 289 281 296 310 312 315 294 291 293 284 278 296 289 280 275 320 277 258 269 281 281 294 305 322 323 326 320 315 316 319 321 325 327 327 326 326 328 324 318 314 314 315 304 309 314 315 317 316 313 311 313
284 294 288 291 300 319 322 340 309 318 279 276 272 272 268 261 263 259 287 314 310 307 303 302 299 305 306 315 323 323 320 314 313 318 315 314 317 316 314 314 321 335 323 316 315 313 312 312 310 309 309 311 314 315
Wind_Speed_850mb
15 16 16 17 21 23 23 26 30 32 33 34 36 37 39 40 37 35 28 31 20 8 20 14 8 9 19 12 3 13 15 3 5 2 4 5 4 4 6 7 9 11 10 8 7 7 13 6 1 5 5 10 7 10
20 20 18 20 22 23 25 24 26 30 33 34 36 38 39 40 40 38 33 37 30 9 13 26 19 5 6 7 10 7 8 9 11 6 4 5 6 1 3 6 8 4 11 6 3 3 13 19 27 19 10 6 7 14
24 23 23 21 21 23 26 29 31 33 34 35 36 37 37 37 37 38 36 38 26 13 15 7 8 14 15 15 13 8 7 5 8 14 10 6 8 3 4 9 4 7 7 1 9 12 19 23 18 8 2 6 13 15
25 24 24 24 25 27 28 30 31 32 33 35 35 34 35 35 35 35 32 23 19 9 5 7 9 19 24 14 15 16 27 32 32 35 10 5 3 7 5 6 2 7 7 8 6 23 22 14 9 11 11 16 19 24
19 19 19 20 23 25 28 29 30 31 32 35 37 37 38 38 36 29 14 9 16 16 8 17 25 10 13 15 23 22 18 16 10 7 8 5 11 8 11 5 6 7 6 4 2 12 11 11 11 5 21 32 38 41
19 20 21 22 24 26 29 30 33 35 37 38 40 40 40 39 31 13 4 3 9 16 7 7 9 10 14 24 27 19 13 7 8 8 10 10 7 5 4 5 4 7 5 8 8 13 7 6 8 9 30 37 41 40
22 24 25 26 27 30 32 34 35 37 38 40 43 46 48 35 21 2 6 10 11 23 4 12 10 8 21 19 19 15 10 6 10 10 10 9 5 6 4 4 10 9 15 15 17 12 6 10 12 28 39 41 42 42
28 29 29 31 32 35 37 38 39 38 39 41 44 46 39 25 10 2 7 17 26 16 6 5 8 8 9 7 8 10 4 8 10 9 9 6 6 8 7 17 7 16 24 19 9 7 9 18 32 42 43 45 48 46
26 27 28 30 31 32 34 35 36 37 41 44 43 36 19 3 4 15 31 17 1 10 4 5 4 5 14 7 10 7 5 5 6 7 6 3 6 9 11 12 12 18 14 13 6 5 18 32 44 50 52 51 49 47
26 27 27 29 32 34 36 37 40 42 45 44 31 11 7 4 28 31 7 1 1 4 3 6 5 5 9 9 6 8 5 3 4 5 2 4 7 9 17 17 17 8 17 9 10 22 36 47 52 56 53 46 40 40
30 31 32 33 35 35 36 38 39 40 39 33 19 9 20 38 11 3 3 2 2 5 10 12 12 6 6 1 5 5 6 5 5 6 3 5 6 5 13 17 22 19 14 9 16 25 34 42 49 52 49 45 43 44
32 33 32 32 34 34 34 34 33 34 33 38 33 35 16 7 3 1 3 1 5 6 10 8 11 8 4 5 6 6 4 0 10 1 2 6 5 15 20 21 22 22 25 32 38 43 43 43 43 43 43 45 45 46
34 36 36 33 33 34 30 26 26 32 40 28 7 5 5 5 6 8 7 6 4 9 13 11 6 5 4 5 10 3 7 9 4 3 7 7 17 7 8 14 20 23 35 36 37 38 37 35 35 38 42 42 44 46
37 37 40 37 36 31 25 22 26 31 25 10 7 11 9 7 9 9 6 3 5 11 14 10 6 13 11 7 10 7 8 1 6 6 10 6 19 9 5 17 28 42 40 36 35 36 38 38 39 39 37 40 42 43
45 41 43 41 31 26 22 24 28 31 11 9 7 10 11 22 17 16 23 18 20 13 15 6 9 10 9 7 7 4 5 9 10 9 5 23 21 15 16 26 34 36 36 37 37 36 34 34 35 37 37 39 41 43
47 49 43 38 30 27 26 34 33 28 9 13 17 11 18 11 18 23 33 41 32 25 11 11 8 6 10 7 7 14 6 12 8 6 17 21 16 16 20 23 26 29 30 30 28 28 31 32 33 37 37 36 45 48
45 52 48 46 45 40 35 43 34 13 14 13 18 34 43 31 32 45 43 41 23 24 8 12 10 16 4 7 8 8 10 6 16 12 14 17 17 18 21 24 25 26 26 26 29 30 33 33 35 37 41 45 48 49
54 55 49 49 49 50 53 48 27 19 22 38 22 41 50 52 54 58 52 43 30 26 18 10 13 13 10 11 11 14 25 19 15 18 20 21 20 21 21 21 21 21 23 26 29 31 31 35 37 42 44 48 53 54
55 56 54 52 50 50 17 16 29 14 41 39 46 45 50 53 65 71 71 59 53 43 14 11 10 7 10 13 14 7 5 2 3 9 13 14 12 14 15 17 20 21 26 28 29 27 27 32 38 39 44 45 47 51
57 56 57 62 49 44 16 15 21 19 17 28 45 47 51 53 60 58 53 47 45 23 15 8 6 11 14 14 15 12 13 14 13 12 5 9 19 21 20 21 22 25 28 29 33 23 27 34 35 40 40 39 44 51
69 73 71 60 57 53 26 19 20 18 15 23 43 44 33 42 55 54 45 35 30 11 4 20 23 20 18 20 20 21 20 20 17 11 9 17 23 28 27 23 25 26 24 31 30 31 29 33 36 38 45 47 45 48
69 63 62 59 37 20 26 38 34 25 22 28 24 22 19 16 30 27 20 15 14 18 16 20 21 17 20 23 23 23 24 24 23 20 18 20 25 28 28 22 28 24 27 23 23 29 33 31 34 38 41 47 46 48
48 47 48 44 23 18 14 15 18 16 7 11 13 6 4 7 19 5 16 14 11 18 18 19 17 18 18 20 23 26 29 29 28 28 29 28 26 24 20 27 30 25 26 22 22 31 33 28 33 36 44 45 49 50
30 15 10 9 25 15 15 16 20 20 17 10 6 8 8 13 13 11 7 7 9 15 21 22 22 20 18 22 26 28 29 28 27 26 28 30 31 31 31 32 29 22 25 31 27 31 32 34 34 39 45 48 48 52
8 15 16 20 19 19 11 15 10 8 5 6 6 6 11 17 4 6 4 5 6 15 22 24 21 19 18 17 19 22 27 30 34 36 33 34 36 40 40 34 31 25 25 32 29 30 35 37 39 40 41 46 48 50
12 20 14 23 14 12 11 9 9 11 10 11 12 24 15 8 6 5 4 3 9 19 23 21 17 14 14 18 20 23 27 31 36 40 42 42 40 40 42 40 39 37 27 30 36 42 44 47 46 46 43 44 44 50
9 9 13 13 18 13 14 11 12 10 8 9 9 14 7 8 3 4 1 7 19 20 15 8 8 12 17 22 25 31 36 39 43 47 50 47 39 32 35 35 37 39 36 35 41 48 50 47 46 46 47 45 43 47
8 14 7 38 12 6 6 10 7 6 6 11 21 6 5 7 5 3 15 26 18 11 3 7 12 16 22 31 38 45 48 51 52 51 50 49 44 41 35 37 37 35 34 38 39 43 45 44 44 46 48 59 41 42
4 20 29 9 9 5 3 2 5 7 13 12 5 6 10 11 30 54 39 22 12 6 7 5 11 20 32 45 53 61 64 59 60 63 62 63 60 50 43 43 37 37 34 34 35 41 43 46 49 50 34 43 53 44
9 24 11 8 5 6 4 14 25 40 44 31 25 33 42 43 36 32 28 19 17 18 13 14 21 32 46 58 67 71 69 66 58 57 58 61 61 55 46 43 41 33 39 45 44 39 36 38 40 38 39 43 43 41
14 9 6 7 10 11 24 42 48 44 32 15 20 25 28 21 25 21 16 15 21 28 31 28 29 33 48 58 63 65 77 77 64 54 48 51 48 47 47 38 43 47 45 46 41 49 41 45 44 45 46 48 47 45
9 4 8 6 11 23 34 20 26 10 10 9 9 11 12 11 11 9 10 13 21 27 31 33 38 43 50 60 64 60 63 66 56 49 48 49 49 46 52 58 55 52 53 57 43 36 45 46 47 46 45 44 41 40
11 11 9 11 11 11 15 28 9 14 10 8 8 9 11 9 13 11 13 15 20 26 31 36 41 46 53 66 72 63 52 46 40 41 41 40 44 48 46 43 49 41 45 56 53 50 50 50 48 46 43 41 42 43
Wind_Direction_850mb
88 70 58 45 38 32 26 23 19 15 11 10 11 10 8 9 13 11 2 3 354 273 287 304 320 336 311 319 300 344 338 332 327 300 266 274 332 335 0 158 173 169 173 203 216 239 266 354 314 77 53 40 84 54
77 70 60 58 48 38 33 20 14 11 10 10 9 9 9 7 7 8 4 359 347 282 275 305 315 36 62 295 300 294 288 317 318 277 301 315 282 238 218 268 50 297 194 209 186 164 85 77 107 96 101 87 3 342
81 71 60 49 36 25 17 11 7 3 1 3 3 2 0 360 358 358 357 355 359 347 318 328 304 300 308 315 297 268 272 308 3 354 316 291 278 56 245 256 353 22 46 82 32 116 118 115 100 95 177 340 329 350
62 49 36 24 16 9 4 1 357 355 353 353 353 352 352 350 351 348 354 4 24 338 316 275 296 306 307 315 330 287 262 277 284 292 287 278 255 294 272 259 152 245 124 208 236 109 111 130 151 120 33 18 352 334
48 35 24 15 9 4 359 355 353 352 349 347 345 344 341 337 339 336 333 354 11 12 303 286 306 298 311 318 318 310 284 285 284 261 226 242 259 304 257 261 251 253 215 132 61 156 137 113 72 20 2 351 339 330
28 20 14 9 5 3 360 354 350 347 345 342 339 337 333 330 332 330 319 298 335 3 319 302 326 318 317 322 318 315 285 259 244 253 257 259 261 263 275 266 192 136 119 162 156 157 118 43 7 325 334 330 329 327
15 12 9 5 4 360 355 351 349 346 343 341 339 335 333 338 345 124 232 271 295 350 307 296 299 280 316 328 323 314 296 264 250 267 246 268 212 258 277 254 176 200 160 144 134 124 81 14 340 335 332 326 324 326
5 0 356 353 351 349 347 345 344 342 337 334 332 326 322 325 334 294 310 277 274 288 215 274 278 279 341 320 296 291 295 281 241 261 293 262 295 229 258 251 208 182 167 168 156 51 37 352 347 345 334 325 320 325
354 350 345 343 340 338 337 336 337 337 336 333 328 321 312 315 307 323 315 321 43 170 235 224 280 289 337 342 305 295 319 279 232 241 233 249 235 231 244 296 235 209 190 195 201 33 351 341 333 326 326 323 316 318
340 337 335 334 333 335 335 334 335 338 339 338 332 320 299 317 313 315 332 19 290 253 234 247 264 265 318 341 293 300 227 277 290 224 213 223 258 286 338 305 270 185 202 203 347 343 334 322 320 320 322 322 319 318
333 332 332 329 327 329 328 328 330 334 339 347 331 286 291 310 315 267 229 248 189 247 214 231 239 254 284 261 291 317 307 281 273 255 150 250 264 28 34 78 76 80 74 60 351 328 318 317 320 322 324 327 325 324
322 321 322 322 322 325 324 324 327 333 339 326 299 290 307 299 275 327 235 275 214 233 192 209 230 223 263 283 267 234 253 142 251 327 259 262 234 86 91 78 60 45 20 352 333 316 315 320 320 321 322 322 323 325
317 317 317 319 319 320 317 317 324 328 335 326 303 295 277 239 359 155 231 276 267 205 200 206 233 196 213 240 254 260 247 232 325 238 238 224 145 126 70 36 20 6 343 327 311 310 310 314 315 317 318 320 321 325
311 310 311 316 316 316 313 314 319 328 349 311 311 304 182 237 238 202 208 213 219 211 204 206 222 205 197 221 223 237 237 276 260 242 237 204 174 193 304 331 341 342 332 325 325 326 323 325 327 327 325 324 323 327
309 308 307 316 309 310 307 306 311 319 323 265 242 243 231 239 255 251 253 255 255 248 221 189 234 224 190 242 206 261 260 245 221 232 214 185 198 234 284 315 320 325 324 326 326 325 325 328 329 330 332 331 328 330
305 304 303 309 303 303 297 296 299 303 248 228 230 255 259 290 267 252 259 259 266 251 211 206 247 229 217 211 209 215 209 226 240 201 189 194 213 263 293 307 316 316 318 317 317 319 322 324 328 329 332 330 325 329
311 294 308 305 301 297 293 289 269 234 234 227 236 237 244 267 268 266 270 274 259 187 188 209 221 218 210 223 213 214 220 236 152 176 199 222 232 263 293 306 309 313 314 315 318 323 326 324 325 327 327 326 326 328
290 297 298 299 298 283 273 266 255 229 232 229 233 236 243 247 259 270 272 261 227 213 221 225 225 214 214 210 237 247 242 241 238 213 226 253 272 286 296 302 305 310 310 312 315 321 323 323 324 327 324 327 328 331
292 294 299 298 293 282 251 232 214 242 230 243 244 242 246 253 256 266 269 264 261 245 224 214 239 225 232 254 294 358 10 353 253 282 296 284 285 301 310 312 316 309 308 313 314 329 324 321 322 320 323 329 333 326
294 292 292 293 279 268 253 242 211 238 231 254 251 241 241 250 265 269 270 259 244 228 221 232 248 331 5 7 345 336 331 336 345 1 105 3 336 325 322 321 318 318 323 312 314 319 322 312 324 328 332 331 325 330
297 294 297 296 285 260 255 254 243 236 241 247 263 243 240 253 255 256 259 252 208 216 351 43 38 24 15 10 11 7 14 14 23 27 347 327 316 317 321 322 307 317 304 309 317 318 319 328 334 339 333 332 336 328
288 294 292 287 257 238 243 253 247 249 242 240 239 242 246 236 257 253 217 159 56 29 25 17 28 31 25 34 28 21 11 359 348 340 330 325 333 332 331 324 315 312 312 316 312 306 319 335 347 331 333 335 331 333
300 288 272 264 250 232 256 255 246 253 266 334 322 247 261 9 11 56 64 52 72 39 47 48 42 34 25 9 357 351 352 351 350 345 343 344 342 339 328 315 321 309 310 313 301 304 318 330 335 336 334 337 341 339
310 271 280 356 3 354 352 359 360 347 1 10 336 293 349 347 356 71 82 65 63 35 36 28 18 11 356 348 353 351 356 358 356 357 349 343 342 339 334 331 327 312 297 298 304 300 314 324 325 330 338 340 340 347
277 4 21 5 5 347 360 344 336 0 335 277 277 351 355 329 8 47 68 102 51 12 6 2 358 359 0 2 3 2 360 359 356 352 353 342 336 328 325 324 323 308 297 294 299 307 319 325 327 326 329 335 341 333
61 31 31 359 332 345 341 315 340 357 2 349 10 330 323 314 47 44 53 70 354 346 346 349 354 5 10 13 10 6 1 356 351 347 348 343 333 321 320 319 321 322 322 298 295 306 311 317 317 320 320 323 327 332
52 348 3 360 312 305 295 325 6 10 18 15 342 326 330 319 30 71 312 329 326 327 328 352 39 41 30 20 10 2 353 346 340 334 331 332 332 327 326 322 321 321 322 322 314 310 307 308 309 310 313 312 316 327
40 15 358 328 330 332 312 346 0 11 2 357 336 314 253 216 255 323 327 321 316 323 11 78 60 39 22 11 3 354 346 340 336 332 327 326 334 333 333 330 328 319 311 305 309 311 308 307 309 307 303 304 297 315
343 345 336 309 303 286 330 351 317 316 313 328 257 260 274 286 305 313 312 304 291 226 157 78 21 3 353 347 345 346 346 342 340 337 333 329 330 335 333 328 324 320 318 312 313 309 307 305 303 306 314 302 305 303
325 338 317 305 300 267 252 309 309 305 303 294 272 275 283 290 298 298 294 281 242 217 245 288 317 332 340 340 334 330 333 337 333 330 321 318 318 324 327 326 325 321 313 315 316 316 317 316 314 307 302 301 305 305
298 305 294 262 269 272 296 308 310 309 303 293 287 273 285 297 306 302 288 261 238 245 261 275 300 316 331 332 326 319 319 327 328 325 324 324 328 329 328 328 326 323 318 315 307 316 310 316 314 309 308 309 308 307
291 267 320 289 281 296 310 312 315 294 291 293 284 278 296 289 280 275 320 277 258 269 281 281 294 305 322 323 326 320 315 316 319 321 325 327 327 326 326 328 324 318 314 314 315 304 309 314 315 317 316 313 311 313
284 294 288 291 300 319 322 340 309 318 279 276 272 272 268 261 263 259 287 314 310 307 303 302 299 305 306 315 323 323 320 314 313 318 315 314 317 316 314 314 321 335 323 316 315 313 312 312 310 309 309 311 314 315